Wind_Speed
13 13 14 14 14 14 14 14 14 14 14 13 13 13 13 13 12 11 10 10 10 11 11 11 10 11 11 11 12 12 13 13 12 15 17 10 8 14 13 11 10 11 12 10 11 12 10 11 12 10 12 14 13 12 11 10 9 7 1 1 1 2 1 2 3 5 7 7 7 9 10 6 5 6 7 8 9 13 14 14 22 25 25 29 33 37 36 36
13 13 13 14 14 14 14 14 14 14 15 14 14 13 13 13 13 13 11 10 9 10 11 11 10 10 11 11 12 13 13 13 14 18 14 4 9 17 17 15 11 11 13 12 14 16 14 12 11 11 14 14 13 15 12 10 9 6 1 1 1 2 1 3 7 10 11 10 9 9 10 8 7 8 8 5 5 9 11 13 23 29 28 32 37 36 36 38
15 14 14 14 14 14 14 14 15 15 15 15 15 15 14 13 14 14 12 11 9 9 10 10 10 10 11 11 12 13 13 14 16 15 8 5 11 13 16 17 13 11 13 13 14 16 15 14 11 12 15 13 15 16 11 11 8 5 3 1 3 3 0 5 11 13 16 17 12 8 10 10 8 8 6 4 5 6 9 15 21 29 34 35 36 36 38 38
16 16 15 16 15 15 15 15 15 15 15 15 16 16 15 14 14 14 13 12 10 8 8 9 10 10 10 11 11 12 13 13 9 4 2 3 6 9 13 14 13 13 12 12 14 14 12 13 12 13 13 11 16 15 10 13 9 5 5 2 3 4 2 7 12 18 21 20 15 10 11 10 8 8 6 6 6 4 6 19 26 32 37 36 36 36 36 36
18 17 17 17 17 17 17 16 16 15 15 15 16 16 15 15 15 15 14 12 10 8 7 9 9 10 10 10 11 10 9 6 2 4 2 4 5 4 10 12 13 14 13 13 16 14 13 14 14 14 12 9 12 11 12 21 15 5 5 3 9 7 3 11 15 19 21 19 17 12 9 9 8 8 7 7 5 3 7 21 32 36 39 37 36 36 34 35
19 19 18 19 19 19 18 18 18 18 17 17 16 16 15 15 15 15 14 12 10 8 6 8 8 9 9 9 10 8 5 1 5 3 2 5 7 2 8 12 13 13 14 16 18 14 14 15 14 13 11 8 9 9 11 26 18 5 3 4 12 14 8 15 16 17 20 19 16 11 11 10 9 6 6 6 5 7 16 25 34 37 38 37 35 35 34 33
20 20 20 20 20 21 20 19 18 19 19 19 18 17 15 13 14 15 13 12 10 8 6 8 8 8 8 8 9 8 9 9 5 3 5 5 6 5 6 12 13 14 17 19 20 14 14 15 14 14 10 6 8 11 10 23 16 7 2 6 9 15 13 18 18 16 18 18 16 15 14 10 7 5 5 7 6 12 22 27 33 34 36 36 34 33 32 32
19 20 21 21 21 22 22 21 19 19 19 20 19 18 15 12 13 13 13 12 10 8 6 7 7 7 8 6 7 8 12 11 3 3 4 4 6 7 4 13 14 16 20 22 20 14 14 14 15 14 8 6 10 11 11 19 10 7 7 6 6 15 16 19 20 18 16 17 20 19 14 8 7 7 6 7 8 14 22 28 32 33 33 33 32 31 31 31
18 19 20 20 21 21 22 21 20 20 19 19 19 18 15 12 12 12 13 12 11 9 6 7 7 7 7 5 4 6 9 8 2 2 6 8 10 10 7 12 15 18 22 23 20 14 14 14 15 14 8 8 12 12 5 4 6 10 10 5 9 17 18 20 21 20 17 16 19 17 11 8 9 9 6 6 10 12 20 29 32 32 31 31 31 30 31 30
17 18 18 19 19 19 20 20 19 19 18 18 18 15 14 13 12 12 13 12 11 9 6 7 7 6 7 4 1 3 4 5 3 5 9 11 13 12 8 12 16 19 23 23 19 15 15 13 13 14 11 11 12 10 12 6 7 15 14 9 14 19 18 21 20 19 18 15 17 14 9 10 10 5 2 8 10 10 21 28 29 30 31 30 31 30 29 29
17 17 17 18 18 18 18 18 18 17 18 17 15 12 11 13 13 11 11 11 10 8 7 7 6 6 6 4 5 5 3 2 4 6 9 9 9 10 9 13 16 20 24 20 16 14 15 14 12 12 9 7 8 9 11 9 4 12 17 12 17 19 16 19 17 18 17 12 15 16 10 8 5 1 4 14 11 13 25 29 28 29 30 29 30 30 28 28
16 17 17 17 18 18 17 17 16 16 16 14 12 9 10 12 12 11 10 9 8 7 7 7 5 6 6 7 12 9 4 3 1 6 10 7 4 6 8 13 16 20 22 17 13 12 14 14 13 13 7 4 5 6 6 8 12 3 12 7 15 16 10 15 15 17 13 9 19 19 11 4 0 1 9 17 14 17 26 27 27 27 29 29 29 30 28 27
16 17 17 17 17 17 17 16 15 15 15 11 9 8 10 10 11 11 10 8 6 5 7 6 5 6 5 9 11 5 2 2 0 6 7 7 2 3 8 12 12 18 20 15 12 10 11 14 14 14 10 7 4 4 6 8 13 3 7 4 11 10 6 11 14 15 10 11 21 12 4 3 2 3 5 10 13 17 24 26 26 25 27 29 29 29 27 26
16 17 17 17 16 16 16 15 14 14 12 8 6 7 9 9 10 11 9 7 4 3 4 4 5 6 5 10 8 2 5 4 3 7 6 4 3 3 9 11 9 15 17 13 14 11 11 13 13 12 10 10 9 9 9 8 10 4 6 4 5 5 5 7 11 15 8 9 15 3 2 5 1 4 3 4 4 10 21 25 24 24 26 27 28 28 26 27
17 17 17 17 16 14 14 13 12 11 8 6 5 6 7 8 9 9 8 6 3 1 3 3 4 4 7 13 9 2 7 8 5 7 8 6 7 7 9 10 10 13 13 12 14 12 12 12 12 10 7 8 9 8 5 3 5 3 5 4 4 6 5 3 7 12 9 9 8 2 3 2 3 5 8 3 1 5 16 21 22 24 26 27 28 27 27 28
18 18 17 17 17 14 12 9 7 7 6 5 5 6 7 8 8 8 7 5 3 2 2 1 3 4 6 8 7 5 10 12 9 8 9 10 10 9 9 9 11 13 12 12 12 11 11 12 12 8 5 5 5 4 4 3 4 3 4 5 5 9 7 4 6 9 13 12 4 1 3 2 2 6 8 4 6 10 12 16 22 26 27 28 29 27 26 29
19 19 18 18 17 14 11 6 4 4 4 5 6 8 9 9 7 6 5 3 3 3 3 2 4 8 8 5 6 9 12 12 10 10 11 11 11 9 9 11 13 13 14 13 12 10 10 11 6 2 4 4 4 4 3 3 4 3 4 4 6 12 10 7 7 9 15 12 6 5 3 1 2 6 7 4 7 12 8 7 14 23 27 28 28 26 26 27
20 20 19 19 17 14 10 6 5 4 4 6 8 11 12 10 6 5 4 3 3 4 5 5 3 6 7 9 9 10 12 11 10 12 11 10 12 11 11 13 13 14 14 11 10 8 7 8 5 2 4 3 4 4 4 5 6 6 7 5 5 12 13 11 10 12 15 10 9 9 2 2 3 5 8 3 4 6 7 6 7 16 23 27 27 25 26 26
21 21 21 20 18 15 10 7 6 4 5 7 12 15 13 10 6 5 5 4 4 3 4 6 8 5 6 12 13 10 11 11 10 11 12 11 11 11 12 12 13 15 10 5 7 9 6 6 4 3 4 5 7 6 6 8 9 9 9 8 6 9 11 12 13 15 16 10 11 11 5 5 5 5 8 9 8 5 9 9 8 13 16 20 25 26 27 25
21 22 22 20 19 17 11 9 7 4 5 8 14 16 13 11 5 1 3 7 11 10 10 9 14 17 16 17 8 9 10 11 12 11 12 11 11 13 13 12 12 12 8 4 6 10 9 4 4 5 5 8 9 10 10 11 12 11 5 5 8 6 9 12 14 16 15 9 9 12 9 7 7 6 8 14 12 6 10 9 9 13 12 15 21 25 28 25
21 22 22 21 19 17 13 11 7 5 6 10 14 13 11 12 7 6 9 11 17 18 18 16 16 21 19 14 5 7 11 11 12 13 12 12 13 13 12 12 8 6 6 7 7 9 9 4 5 8 9 10 11 12 12 13 13 11 6 6 7 3 11 14 17 16 14 7 6 10 10 9 8 7 9 14 11 8 13 13 12 14 15 19 18 20 28 25
20 21 22 20 18 16 14 11 8 6 6 10 13 11 9 12 10 11 13 13 17 16 18 20 18 18 15 10 10 7 13 12 11 12 13 14 13 11 12 11 6 4 6 9 6 6 6 5 7 10 11 11 11 11 12 14 11 7 6 6 3 8 12 12 16 17 12 6 6 9 9 8 8 7 9 13 11 10 15 17 18 18 20 24 17 14 25 27
19 20 20 19 17 15 13 11 9 8 9 10 13 10 8 11 10 12 12 10 14 14 17 20 18 16 12 8 9 6 8 10 11 13 14 15 14 12 13 9 5 7 7 8 6 4 4 5 10 11 10 11 11 10 11 11 8 5 6 4 3 13 13 8 12 15 11 7 10 11 7 5 6 5 5 8 7 6 11 15 17 20 22 26 21 15 21 27
19 19 19 19 16 14 12 11 10 12 14 13 12 8 9 12 12 13 12 8 9 12 16 14 14 14 12 9 7 6 5 5 8 14 16 15 15 12 11 10 7 6 7 9 10 7 5 8 14 13 10 11 11 10 9 7 5 6 8 5 4 12 13 12 13 12 9 10 14 13 6 3 6 8 4 4 5 4 7 11 14 18 21 25 22 16 19 26
18 19 19 18 17 13 11 11 10 14 16 16 13 9 11 13 13 14 11 7 5 7 10 8 10 9 10 11 9 8 9 9 11 13 18 18 16 10 8 11 8 5 8 11 11 8 7 11 16 13 11 11 10 9 9 6 4 5 7 9 7 8 14 17 18 13 7 7 13 11 5 2 6 11 9 6 7 7 9 12 13 16 19 21 20 19 21 24
16 18 19 18 15 12 12 12 11 15 15 11 11 10 10 12 13 14 8 4 2 3 4 4 6 5 6 10 10 7 7 9 14 15 20 19 18 12 7 8 7 6 9 10 8 5 6 10 13 12 11 11 9 8 9 7 4 3 6 10 10 6 14 17 16 14 7 6 14 11 3 3 5 8 11 12 11 11 11 13 13 15 17 18 20 21 22 21
14 16 17 16 14 12 12 12 11 13 13 11 13 11 10 11 14 14 6 2 1 0 2 4 4 2 3 7 11 6 2 7 15 18 22 19 18 14 7 4 5 5 8 6 4 4 7 11 10 11 11 9 7 6 7 7 5 4 5 8 9 8 11 13 9 7 7 8 12 11 5 5 4 5 10 15 13 11 12 10 10 14 17 18 19 20 23 20
13 14 14 13 13 13 13 12 11 13 11 9 14 13 10 11 13 10 3 1 3 2 0 4 1 3 3 7 12 12 8 9 10 14 22 17 14 12 8 6 4 6 9 6 3 6 9 10 8 11 11 7 5 6 7 6 5 7 8 7 8 9 9 14 10 7 6 8 8 8 7 5 3 5 8 12 12 11 13 10 9 14 18 19 20 19 21 21
11 12 13 11 11 14 15 13 11 12 10 10 14 12 10 12 11 5 1 1 3 2 1 3 1 3 4 7 13 17 16 8 6 14 22 14 13 12 7 8 9 9 8 7 6 6 8 11 11 7 7 6 6 7 9 7 5 7 9 6 3 4 6 10 11 8 4 5 8 10 9 6 2 5 7 9 10 11 12 11 12 18 22 22 22 20 18 20
11 11 11 10 10 12 14 12 10 13 15 14 13 10 11 14 8 2 0 1 1 0 2 2 2 3 5 5 8 13 13 5 8 11 14 8 13 13 8 12 12 7 5 7 9 7 9 16 15 7 6 8 8 8 10 8 5 5 7 6 4 3 4 2 4 4 2 1 8 15 14 8 4 6 7 7 8 10 10 10 11 17 23 24 24 21 17 20
11 11 10 9 9 10 11 10 7 10 13 12 11 11 12 9 2 1 3 3 2 2 2 3 5 5 6 5 5 8 10 6 10 9 6 3 9 10 6 10 6 2 4 5 8 11 9 12 8 4 6 5 5 7 8 8 6 5 6 3 2 3 2 2 1 3 2 3 5 14 13 7 3 6 7 5 7 12 11 10 9 13 21 26 26 23 20 22
13 11 10 9 9 8 9 8 5 7 10 10 13 15 11 3 1 1 4 6 3 2 5 1 5 5 6 6 6 7 7 4 7 6 5 3 4 5 4 4 1 1 4 3 6 10 7 5 4 2 2 4 3 3 5 7 6 6 4 2 0 1 1 3 2 2 2 3 4 5 8 4 0 6 10 9 9 13 12 14 15 15 21 26 27 26 23 24
13 12 9 8 8 6 4 6 6 8 10 12 15 13 6 1 2 3 5 7 1 1 5 4 2 2 5 5 5 4 3 3 5 4 5 5 3 4 5 6 6 4 3 4 4 4 1 1 5 6 3 3 5 1 3 3 3 4 4 4 3 1 1 3 3 2 1 4 6 2 9 4 1 7 11 10 13 17 17 20 23 21 24 27 27 26 23 23
13 11 8 7 7 4 1 3 5 7 8 10 10 6 3 1 1 4 6 6 5 3 5 5 6 2 7 5 4 6 3 4 8 4 4 4 2 2 3 7 10 7 2 3 4 3 2 2 4 5 4 7 7 7 5 2 2 5 4 3 4 2 3 3 2 2 2 4 5 2 5 3 2 6 9 11 16 18 18 20 23 23 24 23 22 22 21 21
11 8 8 9 7 3 1 2 3 5 6 8 4 3 2 2 1 3 4 5 6 6 7 8 8 1 5 3 3 4 2 2 7 5 3 4 2 4 5 5 10 8 1 2 3 1 2 3 7 9 10 13 10 11 7 2 1 5 4 2 4 3 2 3 3 4 4 2 2 2 3 2 4 7 8 11 14 15 17 18 19 17 18 18 17 18 18 20
10 7 9 11 7 5 4 4 3 1 6 7 1 1 2 2 3 3 4 6 6 8 9 8 7 5 1 1 3 6 4 1 5 4 3 5 4 2 5 3 4 3 5 3 3 3 3 2 4 10 14 15 12 11 6 4 1 3 4 2 4 6 2 3 4 4 4 3 1 2 5 4 5 7 4 5 10 13 14 16 18 17 14 13 14 14 14 16
8 7 10 13 7 6 7 6 4 8 9 6 2 2 2 2 7 4 6 9 8 10 7 5 5 5 4 3 2 6 3 1 3 3 2 5 3 5 2 4 10 8 8 5 1 2 2 4 7 9 12 15 17 12 8 6 3 3 5 5 4 5 3 2 2 2 3 4 1 3 9 8 5 6 6 8 11 13 12 14 16 18 17 13 10 11 12 14
8 8 10 10 4 2 6 4 4 10 11 5 2 3 2 2 4 6 6 7 7 8 5 3 4 4 5 4 3 6 6 3 3 3 2 1 2 8 8 6 12 13 11 9 3 2 3 3 7 4 6 8 12 7 5 7 6 2 3 3 3 4 2 1 3 1 3 4 2 3 3 3 1 3 10 14 15 14 12 13 13 15 17 15 11 10 11 12
9 10 9 3 3 3 5 5 6 10 8 3 2 3 2 2 4 8 4 6 4 5 3 5 4 3 3 5 3 7 7 5 7 5 2 3 2 7 12 9 9 14 16 11 3 4 3 1 5 3 5 5 3 3 1 5 5 3 3 3 2 3 2 1 2 3 2 3 4 3 3 1 3 1 2 6 13 15 11 10 10 13 16 15 13 13 12 11
11 9 7 1 4 4 3 5 9 8 3 1 3 4 3 3 4 7 4 7 3 1 2 4 4 2 4 7 5 5 5 5 8 7 2 3 4 7 13 12 8 10 14 12 5 4 4 1 2 4 4 5 1 1 2 2 1 3 2 2 3 2 0 1 1 3 3 3 5 4 2 1 3 1 4 4 6 13 13 10 11 14 18 18 16 14 15 18
9 5 4 0 3 5 4 6 8 6 3 1 4 3 2 4 6 3 4 6 4 2 3 3 2 2 4 4 3 3 3 4 5 5 3 3 3 5 9 12 10 9 9 7 4 5 3 2 2 2 2 1 3 3 1 5 4 3 1 3 1 1 1 2 3 3 3 3 6 6 5 1 3 4 6 2 6 13 15 14 13 15 16 16 16 14 15 18
7 4 2 1 4 6 6 5 6 6 4 1 2 2 3 3 6 5 3 4 4 4 2 1 2 4 5 2 5 1 2 3 2 2 2 3 3 3 8 14 15 12 7 2 3 6 4 2 3 2 1 4 6 5 4 8 6 5 1 4 3 3 3 2 1 3 4 3 6 6 5 2 1 4 5 4 10 16 18 19 17 16 15 14 15 13 13 15
8 10 5 1 2 5 6 5 5 3 3 3 1 2 5 5 6 8 6 6 5 2 1 2 4 4 4 2 6 2 4 2 0 1 3 3 2 4 8 13 15 11 7 3 4 8 7 2 3 4 3 5 6 6 6 5 3 4 3 0 0 4 5 3 3 1 2 5 5 4 5 2 1 3 5 9 18 21 20 20 18 15 14 13 13 11 11 15
15 16 7 2 1 6 6 3 2 2 4 1 1 5 5 5 7 8 7 7 5 3 3 3 3 3 4 4 5 4 5 2 2 0 2 2 2 4 6 9 11 7 4 3 3 5 5 3 3 3 4 5 3 3 2 3 4 3 4 3 4 8 7 1 3 4 4 4 3 3 5 3 2 3 7 11 19 20 19 20 18 14 13 12 11 9 8 11
15 13 6 2 4 8 3 6 4 3 3 1 3 4 4 5 5 4 6 6 6 7 4 2 2 2 2 2 2 4 5 2 2 3 4 1 3 3 6 8 8 6 5 5 6 5 2 2 3 2 2 2 2 1 2 3 3 4 5 5 7 10 5 2 3 4 4 1 2 4 6 4 3 5 5 6 13 17 18 20 19 16 14 12 12 10 9 9
7 6 3 4 6 1 5 10 7 4 2 0 2 2 2 5 6 3 7 5 4 7 5 2 5 6 6 6 5 4 5 6 3 4 3 2 3 3 6 6 7 6 9 10 6 4 2 2 0 4 2 0 3 3 2 2 4 4 4 7 11 11 2 5 2 3 5 2 2 4 12 12 9 9 9 8 12 15 16 20 20 18 16 14 14 14 12 11
5 4 3 4 7 8 10 11 9 5 3 3 2 2 3 5 4 5 6 5 4 6 5 4 7 7 7 8 5 4 6 6 5 6 6 6 2 2 2 5 7 8 11 10 9 4 2 3 2 1 1 3 4 4 5 5 5 4 4 8 13 11 2 4 3 4 7 5 4 4 14 17 12 11 12 11 11 12 15 20 20 19 19 16 16 16 15 15
6 7 9 6 3 4 6 7 8 7 7 6 2 2 5 7 5 5 5 4 6 8 5 4 8 9 9 8 5 2 5 4 4 7 7 8 6 1 1 4 11 13 11 9 9 5 0 2 7 7 4 3 5 7 6 6 5 6 9 9 7 6 6 3 1 1 3 5 6 9 14 16 14 13 12 10 12 14 19 23 22 20 21 19 18 18 17 16
12 10 14 14 8 3 2 4 2 6 6 5 3 4 6 7 7 7 6 5 5 7 7 5 7 9 9 8 5 2 4 3 3 4 4 6 7 5 3 4 9 15 12 5 5 5 1 2 6 8 7 7 7 6 4 6 6 6 9 9 7 9 10 7 4 4 7 10 12 12 12 12 12 13 12 13 18 23 25 28 26 23 22 20 19 19 17 16
14 10 12 16 12 7 5 6 2 4 2 1 1 3 4 7 7 7 8 7 4 5 6 6 6 7 7 7 5 4 5 3 1 3 4 4 5 4 4 3 5 10 10 4 3 5 3 3 5 4 5 8 8 2 2 6 6 5 8 9 9 7 8 9 7 6 10 13 12 11 10 7 7 13 17 19 24 24 22 24 25 25 24 23 21 20 18 17
12 7 9 12 7 5 5 6 3 2 2 1 2 3 4 6 6 5 6 8 8 6 6 5 4 4 5 6 6 6 6 4 3 5 6 6 6 5 3 3 4 6 7 5 5 5 4 3 6 4 3 4 7 4 3 5 5 5 6 8 9 4 2 5 5 5 9 11 12 10 7 4 6 13 18 22 27 23 18 21 25 26 27 24 21 20 19 17
13 5 9 11 5 6 6 3 1 4 2 1 3 3 4 6 7 7 4 4 6 6 5 6 6 4 4 6 6 5 7 8 6 5 6 6 7 6 3 3 4 4 4 4 4 5 4 3 4 4 3 3 7 6 5 3 2 3 4 7 9 7 2 3 6 8 11 12 10 8 7 6 8 12 14 17 21 21 18 20 24 26 26 24 21 20 19 17
Wind_Direction
352 350 349 348 347 346 345 345 344 344 343 343 343 341 340 340 339 338 332 321 313 309 308 306 303 302 305 309 305 301 295 287 280 268 270 274 224 206 210 202 190 195 199 204 192 179 182 192 186 191 227 233 239 234 189 164 160 154 158 291 265 274 261 198 181 140 122 134 149 161 166 149 125 129 128 116 109 121 118 122 134 131 132 135 134 139 146 149
348 347 345 343 341 340 340 340 340 339 338 339 338 338 338 336 335 336 335 330 316 306 306 305 303 302 304 308 309 305 299 296 285 271 269 267 217 207 206 207 193 183 191 198 189 179 182 193 193 202 223 225 229 224 190 156 163 178 181 129 248 269 320 130 137 129 129 139 142 155 158 136 134 144 136 124 124 132 118 127 139 131 131 137 136 139 144 146
345 345 342 340 338 336 336 335 337 337 335 335 333 333 333 333 332 331 331 331 324 308 299 301 303 301 302 307 311 309 307 306 293 285 280 225 226 214 204 206 197 186 192 196 189 178 183 197 199 204 215 222 231 220 179 148 161 221 222 155 240 246 72 133 132 127 133 138 136 148 149 130 142 150 133 139 133 119 125 145 146 134 136 142 141 141 144 145
341 340 339 337 335 334 334 334 335 334 333 331 329 329 328 331 331 329 327 326 327 313 293 294 299 297 301 306 312 312 314 316 302 308 19 248 248 224 210 203 191 191 193 188 185 182 194 213 210 207 212 222 232 222 174 155 160 213 220 148 194 217 162 146 135 128 134 137 131 130 133 125 142 149 131 137 116 72 132 150 147 140 142 145 143 145 148 149
336 336 335 333 331 331 331 332 332 332 331 330 329 327 326 328 328 329 326 322 325 320 294 283 291 296 298 304 309 313 324 344 86 133 98 343 332 237 209 198 191 190 186 180 180 190 215 226 222 214 216 230 238 231 178 166 168 190 232 179 157 187 163 144 142 135 136 132 125 126 127 127 136 132 132 132 104 105 152 150 147 144 146 146 146 148 148 149
335 334 333 331 328 326 326 328 328 327 328 329 331 328 325 326 326 327 325 321 319 321 300 274 281 291 294 303 305 306 311 119 141 163 296 330 344 298 202 195 193 188 183 180 178 196 221 223 229 222 216 227 244 253 171 164 175 168 268 242 165 182 167 144 147 137 135 129 127 135 129 128 124 107 134 123 75 129 146 147 149 148 149 148 149 150 148 149
334 333 331 330 327 324 323 323 324 323 324 327 330 331 328 325 325 325 322 318 313 318 302 268 271 283 291 299 300 299 276 250 218 284 304 301 334 345 209 195 192 188 183 179 177 197 220 214 221 225 225 221 233 254 175 160 177 145 167 274 171 170 161 146 147 139 139 134 135 139 130 129 125 109 141 121 85 133 145 147 149 150 149 149 152 153 151 151
332 330 328 328 325 323 321 321 321 320 322 324 328 332 330 328 326 322 317 313 308 311 295 263 263 274 287 295 308 301 271 265 268 313 305 288 314 333 246 202 193 188 183 177 174 187 213 213 214 221 230 230 242 249 174 151 166 145 167 250 159 154 156 147 144 140 139 133 135 134 127 127 128 131 139 129 118 137 148 148 149 151 150 150 153 153 153 154
330 327 326 324 322 321 319 320 320 320 321 323 327 330 330 331 328 321 313 308 302 301 284 259 254 265 284 292 318 298 273 290 340 237 282 289 290 305 275 216 197 188 184 175 171 186 214 217 215 224 236 251 263 269 250 153 177 174 166 176 140 146 150 144 142 142 139 135 134 128 121 123 127 130 118 135 138 139 150 147 148 154 153 152 154 156 156 156
336 334 331 327 324 321 318 318 319 319 319 322 326 328 332 333 330 322 312 306 300 293 274 251 244 257 275 273 315 284 265 290 262 234 271 283 275 277 265 223 202 190 184 175 176 197 220 218 212 227 241 265 276 273 283 293 180 169 157 148 140 143 146 142 143 142 137 139 138 125 117 125 131 132 110 150 148 151 159 154 155 158 156 156 155 158 159 158
349 347 341 336 329 324 321 319 319 318 317 321 326 332 339 335 332 326 314 309 299 287 264 242 236 250 261 251 237 218 171 226 264 285 296 290 260 255 247 222 205 191 183 180 186 201 220 223 221 229 226 253 274 270 278 295 267 167 158 156 137 138 144 141 141 141 136 138 138 122 104 111 119 11 153 156 151 158 162 160 164 161 158 159 156 159 162 160
1 357 350 342 333 328 324 321 320 317 318 323 328 339 349 342 339 334 323 312 300 282 251 232 228 240 254 252 240 223 155 102 297 293 308 312 256 233 225 215 206 193 182 181 197 209 225 230 237 245 240 253 259 279 300 302 298 183 145 143 122 123 137 141 144 146 136 134 139 122 94 94 175 80 147 160 156 156 162 161 163 162 159 161 157 161 165 160
5 1 355 347 336 329 326 322 318 316 320 329 334 347 352 349 351 346 336 319 300 271 239 221 224 239 252 253 250 245 187 111 229 259 299 321 282 212 196 194 201 195 180 183 204 215 234 234 243 255 269 290 288 320 323 286 277 218 119 130 127 118 133 150 152 140 114 137 149 128 91 183 227 46 104 156 158 158 164 163 163 164 161 161 158 161 163 160
1 358 356 351 342 332 326 322 317 316 324 337 343 346 347 352 356 354 350 336 316 258 224 211 229 240 252 251 258 266 211 228 259 231 252 274 219 193 177 173 198 197 183 202 223 227 236 238 250 266 277 292 311 325 317 293 271 208 125 148 152 118 128 159 150 128 96 157 164 95 82 178 86 70 99 136 163 171 165 165 169 167 161 157 157 160 162 163
355 353 351 352 350 342 334 328 319 321 330 344 346 336 339 347 354 359 359 354 345 275 211 215 242 245 268 270 274 228 195 209 217 206 218 216 189 188 177 172 197 203 199 220 240 241 232 230 240 254 266 272 291 302 291 294 279 222 144 172 170 122 134 187 161 140 129 170 193 19 106 162 64 155 185 150 181 187 161 172 177 165 160 155 158 165 165 167
356 355 354 354 355 352 348 341 326 327 334 343 336 326 333 338 348 356 359 13 355 298 198 193 314 294 282 283 277 235 206 208 214 206 209 204 189 189 178 179 196 204 213 224 243 251 226 221 227 234 253 253 259 261 261 280 264 225 178 188 150 128 146 182 194 172 142 146 192 18 117 140 84 173 190 158 188 184 155 180 182 165 163 158 163 172 167 168
3 3 1 360 1 0 0 356 339 334 338 342 332 328 327 324 335 342 342 16 346 285 219 205 328 301 266 232 245 239 222 220 220 208 206 201 196 195 179 183 193 198 215 223 234 249 221 211 208 205 245 252 246 222 220 248 236 212 193 213 165 147 154 158 171 165 141 141 143 102 96 147 135 163 157 137 197 188 153 175 182 168 165 160 165 171 165 167
8 8 7 5 5 5 7 5 350 347 352 346 339 336 327 317 314 304 305 332 336 298 256 221 219 288 259 227 236 221 210 214 208 200 201 203 198 192 179 181 190 194 212 223 219 229 206 183 158 169 223 233 249 220 188 213 213 191 185 221 192 152 155 159 158 153 147 148 124 106 111 184 163 148 134 136 188 177 173 170 158 164 164 161 166 166 163 168
7 8 8 6 6 8 10 7 359 6 7 354 351 348 342 338 316 270 275 274 269 283 263 213 202 243 302 276 250 207 199 197 192 195 192 196 192 180 176 180 189 191 198 205 197 201 177 153 169 209 215 207 230 227 218 230 228 213 187 198 210 161 157 160 153 152 150 142 119 125 172 180 170 153 136 175 186 151 188 188 143 153 164 165 165 161 165 172
5 6 7 5 6 8 11 10 13 33 19 7 3 358 354 357 350 273 293 258 260 271 263 246 238 251 288 304 272 183 185 181 183 194 190 192 177 168 179 185 190 192 191 178 186 193 180 166 199 210 219 211 217 227 239 246 250 260 245 224 235 180 149 145 144 153 152 135 125 145 167 164 170 178 152 176 187 160 183 191 149 156 172 171 164 160 167 175
4 4 5 5 4 7 12 11 19 40 17 3 1 358 351 355 359 348 337 297 286 282 265 264 262 259 276 303 294 181 163 164 187 190 192 197 175 165 180 188 190 187 208 208 192 193 191 202 212 208 223 222 217 217 234 250 254 272 281 270 273 154 136 143 145 156 157 131 119 139 150 157 177 189 162 169 184 177 180 184 169 169 176 173 167 166 171 173
0 1 2 4 3 5 5 2 10 18 2 353 350 346 345 354 350 329 327 307 295 285 260 261 264 267 277 286 280 226 154 166 206 193 191 193 175 165 171 183 201 172 209 224 199 183 193 224 226 213 217 227 233 217 220 243 253 270 267 274 304 116 126 142 148 156 158 127 129 144 141 156 186 187 169 176 187 184 183 186 181 174 172 175 179 179 174 171
358 359 359 1 1 358 353 349 350 344 342 341 339 338 339 352 347 329 325 299 290 288 267 252 240 251 269 271 276 264 159 177 198 183 189 196 185 179 170 178 215 185 195 225 212 185 183 213 227 229 220 218 240 233 215 231 243 251 253 268 137 138 136 142 155 160 153 128 143 150 132 144 175 169 171 186 188 188 188 192 189 180 178 181 184 185 178 172
356 356 356 358 357 353 343 336 332 336 337 320 321 353 357 344 340 335 329 294 280 286 277 250 220 232 250 244 236 257 265 232 205 182 185 204 202 190 184 189 204 202 199 210 220 222 203 198 209 229 236 214 230 243 227 221 224 236 241 242 163 149 145 146 157 159 139 126 141 137 116 147 164 159 177 193 182 202 199 191 191 189 190 189 189 193 184 176
353 354 354 354 354 352 341 336 334 336 328 304 310 360 1 334 327 335 329 293 271 261 261 237 211 222 234 228 204 216 244 242 239 201 180 201 208 189 200 201 197 214 205 203 217 229 225 202 195 213 238 223 218 234 234 218 211 234 231 237 229 153 143 151 155 152 131 136 157 147 117 167 173 164 169 180 182 193 205 200 190 188 194 199 203 201 186 177
350 353 353 352 354 355 350 350 342 331 328 323 335 354 350 329 320 332 331 276 273 224 212 183 195 211 213 207 188 211 248 229 237 213 178 197 215 210 214 194 185 215 214 206 206 223 241 215 194 199 224 229 220 225 233 212 198 246 211 217 239 184 155 162 155 152 158 166 177 178 131 137 185 175 160 163 174 180 195 205 193 187 195 201 203 197 183 177
346 352 352 352 352 353 354 357 356 348 347 355 356 348 339 324 315 324 320 235 2 357 152 138 174 234 209 187 183 210 272 187 215 206 177 188 216 232 256 205 181 225 234 225 199 195 223 225 206 192 207 227 222 222 230 195 176 259 223 195 229 223 171 155 140 172 185 156 176 188 133 117 179 190 160 155 159 169 183 196 194 196 202 197 196 193 187 184
338 349 350 351 348 347 349 347 360 5 355 351 345 334 325 320 318 325 319 70 22 340 215 129 141 290 217 188 204 234 244 192 189 178 171 184 212 227 255 248 249 260 241 239 219 185 201 227 221 190 197 221 220 215 222 201 187 241 247 210 213 225 185 149 148 216 200 134 169 184 131 104 147 174 162 151 153 171 180 180 191 204 205 196 192 192 193 195
325 339 345 347 339 339 342 338 349 360 354 345 332 325 326 321 317 319 293 19 1 300 178 133 144 264 221 201 214 240 247 212 135 152 163 181 217 222 257 278 288 280 249 252 247 193 180 217 235 210 185 203 217 214 216 215 211 238 264 268 238 234 214 165 164 207 215 137 177 183 150 120 133 168 162 157 168 181 178 174 184 197 202 199 192 189 197 203
311 323 336 342 329 330 339 342 353 356 347 333 320 320 321 311 305 306 314 13 2 297 190 152 122 183 214 219 213 235 244 179 122 161 162 171 216 219 259 274 277 294 297 281 266 251 189 199 231 239 181 204 215 203 212 218 213 242 269 279 292 268 237 169 135 167 234 257 185 181 166 132 139 186 180 172 177 178 174 170 175 184 192 196 193 191 198 203
298 306 319 332 325 316 319 332 354 353 340 328 324 319 302 291 300 25 354 340 320 301 264 161 128 164 210 233 214 224 236 162 135 178 173 161 211 202 237 262 262 302 308 283 261 264 222 184 215 227 175 219 214 177 214 232 203 217 252 257 291 276 207 118 82 129 175 275 204 177 162 130 144 181 186 192 170 170 174 170 169 177 185 189 191 197 202 197
287 295 305 314 311 297 303 329 3 359 349 343 332 318 296 270 80 350 327 317 296 304 321 15 149 177 191 226 225 209 227 151 135 191 170 153 224 185 201 248 186 194 281 265 234 247 237 168 163 119 62 316 326 142 219 245 205 190 225 229 111 319 89 133 181 161 166 246 243 156 114 85 7 141 166 184 162 163 173 175 177 175 179 186 188 194 201 195
284 286 295 299 295 280 301 347 8 8 356 338 327 316 295 83 24 327 307 312 2 157 308 322 270 199 151 220 235 192 241 137 145 209 161 157 229 182 198 243 235 232 257 269 255 218 271 323 165 123 78 263 286 304 189 225 211 188 207 188 146 124 118 141 168 162 213 257 259 147 93 90 155 124 150 165 151 159 173 180 181 175 177 186 188 191 198 196
285 283 292 285 272 268 324 6 7 11 342 322 337 340 309 38 17 289 289 322 6 323 299 328 308 217 157 223 218 166 222 169 157 186 167 167 216 168 210 257 251 250 256 287 293 180 201 281 176 145 128 175 229 254 226 242 210 215 241 157 146 172 145 142 140 138 205 253 264 234 109 132 165 118 130 135 136 150 161 171 176 175 179 183 183 186 189 189
289 280 277 267 250 246 15 18 353 6 317 299 4 41 311 16 329 270 294 324 338 338 346 347 325 247 165 224 226 196 250 156 167 181 182 185 178 181 198 242 247 245 17 2 317 306 243 214 171 176 160 161 208 243 241 282 246 228 276 81 154 206 154 144 176 178 188 217 316 6 81 106 112 106 120 129 126 128 133 140 144 154 171 174 174 177 177 180
296 272 254 252 252 254 264 303 305 258 274 280 323 2 330 352 293 303 355 326 336 13 10 356 348 346 359 56 337 307 329 64 195 194 179 183 166 194 195 196 262 219 76 33 304 1 346 284 201 186 166 161 196 232 215 174 150 216 245 264 195 201 185 151 186 207 182 142 56 111 114 110 101 93 98 131 121 114 114 114 112 117 133 146 161 171 172 177
306 287 258 249 266 273 256 280 268 213 239 271 298 316 351 314 294 338 12 339 360 33 30 12 355 344 351 34 352 313 319 99 208 221 217 180 133 358 335 58 28 39 65 53 359 36 41 314 285 223 179 161 181 216 235 203 192 169 197 237 222 201 221 137 123 242 190 145 129 138 139 149 144 130 162 166 137 125 119 113 113 115 112 108 131 163 172 172
320 316 287 261 274 254 201 213 230 216 232 260 280 287 266 249 315 32 20 334 8 38 54 45 341 338 0 351 334 328 324 359 338 283 323 73 75 4 1 34 25 16 25 38 30 350 30 337 296 242 150 143 168 191 281 271 270 259 202 232 185 175 225 130 102 203 194 144 90 50 105 140 64 130 165 161 143 136 132 123 117 111 105 97 103 138 160 167
329 321 301 264 149 176 181 182 209 215 225 242 263 289 270 270 45 69 17 320 25 31 38 66 23 356 4 345 336 330 324 359 354 329 19 9 329 13 11 7 6 2 3 5 341 326 10 40 299 321 84 85 116 128 213 261 264 259 275 311 94 126 152 154 150 179 184 134 118 75 24 307 284 317 151 154 139 130 120 107 94 85 84 79 84 112 128 127
338 316 286 210 153 194 186 188 212 217 211 206 238 257 258 293 23 85 42 346 30 17 345 89 69 18 16 0 340 310 326 28 19 1 26 340 343 32 20 3 349 354 353 342 335 346 344 72 289 297 74 71 11 186 206 247 218 221 263 1 32 27 5 271 262 196 188 137 129 132 113 262 265 99 50 13 93 99 93 91 81 74 73 68 73 96 106 95
338 298 266 289 197 210 195 202 218 215 187 216 254 289 319 302 323 56 79 11 26 64 26 72 96 109 91 14 310 257 331 28 36 15 10 360 18 43 18 358 339 340 346 333 358 22 345 355 323 272 90 40 249 182 242 280 275 253 165 122 150 290 264 267 291 266 244 148 137 142 130 158 282 122 119 118 94 91 93 96 84 76 80 74 69 80 92 89
339 288 304 17 212 201 196 229 240 204 173 331 276 349 5 296 319 1 52 16 31 79 62 89 61 52 80 16 308 294 42 35 62 30 340 348 32 41 8 356 348 350 359 349 8 6 339 318 321 313 70 262 238 172 204 257 282 299 240 146 180 225 225 224 255 293 316 76 112 111 110 160 290 83 106 120 103 96 93 92 84 80 86 78 67 70 79 80
326 298 303 82 181 194 200 256 273 173 99 8 333 66 20 360 1 5 16 22 27 49 30 88 88 56 63 314 299 13 67 10 65 147 244 267 353 22 5 358 358 4 12 5 346 350 345 323 314 323 319 279 240 178 185 225 320 324 287 47 50 257 245 197 159 161 42 83 104 98 98 143 304 89 130 123 104 99 96 94 89 87 85 74 69 70 70 75
326 310 284 154 249 226 220 281 307 94 87 46 77 97 85 40 11 350 2 22 12 355 17 63 105 129 151 222 278 53 72 327 324 41 258 250 30 14 16 18 12 14 33 19 323 336 341 327 349 346 327 332 356 46 28 347 11 357 298 305 265 259 269 240 99 67 64 82 108 114 107 142 208 143 140 127 111 107 107 107 106 104 97 83 82 83 71 74
336 317 268 221 263 218 210 346 351 53 61 137 83 80 119 93 57 344 343 0 357 356 3 30 18 16 134 190 319 63 93 81 19 288 274 114 89 19 18 38 37 24 13 357 326 316 297 295 7 40 4 22 69 10 338 326 329 314 297 301 271 268 298 42 76 63 71 93 129 129 118 125 150 118 118 140 126 119 119 119 119 118 113 105 102 95 78 74
330 311 303 349 335 44 58 7 9 49 17 81 79 19 32 85 97 53 1 356 358 352 339 4 24 18 44 54 31 26 61 69 29 298 295 49 95 53 355 8 63 36 335 335 340 326 306 294 136 121 103 103 192 222 284 308 308 300 288 294 281 279 3 85 82 87 125 131 38 124 135 136 149 148 153 159 134 124 128 129 128 127 125 119 111 104 91 86
304 301 14 20 338 12 38 12 13 41 20 29 38 312 28 66 86 71 35 16 7 354 344 22 28 31 54 63 58 17 27 44 14 348 4 8 18 112 343 346 53 29 339 357 27 18 341 331 341 82 224 247 256 305 341 333 326 348 331 280 264 266 345 69 66 105 135 117 54 130 139 138 154 159 147 142 134 132 133 130 131 133 132 127 116 107 96 88
333 327 3 23 328 14 39 2 5 33 29 32 10 313 45 58 47 58 58 43 32 17 10 38 35 39 55 66 78 31 11 33 16 1 8 356 341 8 46 27 36 20 3 27 41 35 106 326 343 338 319 294 289 300 327 331 332 357 345 318 290 306 342 7 82 107 113 114 138 164 148 139 147 145 138 144 141 130 123 125 129 131 133 135 125 111 99 91
358 344 354 1 351 12 23 314 358 65 34 13 358 1 46 70 62 49 32 34 52 29 19 46 42 35 54 71 82 71 32 33 14 356 354 342 340 353 21 41 23 7 4 24 42 41 58 314 345 349 347 344 313 283 313 336 342 353 340 344 9 10 1 357 357 40 85 114 138 150 139 131 134 134 140 145 133 127 130 134 136 132 130 129 121 113 109 106
2 352 345 343 340 0 357 312 301 110 104 290 345 2 36 64 65 59 37 28 43 33 31 63 62 39 53 60 58 74 69 56 27 8 344 328 346 10 23 28 0 352 358 15 18 17 17 323 336 6 11 337 316 307 345 323 325 336 331 348 7 4 360 355 358 59 96 115 125 126 118 109 123 140 144 136 124 123 128 129 128 125 119 115 112 110 111 110
356 343 348 343 329 351 348 301 289 63 75 44 32 21 47 59 54 65 61 41 33 28 27 52 64 56 64 54 40 43 27 2 15 16 352 345 356 0 3 11 1 346 355 12 357 343 359 342 332 13 61 318 310 339 331 294 307 325 334 356 355 340 1 348 355 68 105 118 117 118 122 124 151 149 139 125 117 114 110 108 109 110 111 111 111 109 107 103
359 350 13 7 331 312 314 270 349 46 75 58 33 40 48 55 49 45 61 74 60 46 23 22 26 37 74 63 40 24 354 345 357 347 322 312 315 329 353 3 25 32 359 353 348 336 360 17 346 9 43 300 305 321 310 303 3 339 339 12 4 357 10 325 355 64 113 132 129 139 154 148 145 139 130 120 114 108 102 99 103 107 111 116 117 114 113 107
Height
1513 1512 1511 1510 1509 1508 1507 1505 1505 1503 1502 1501 1500 1499 1498 1498 1497 1497 1497 1496 1495 1494 1494 1493 1492 1492 1491 1491 1490 1489 1489 1489 1489 1488 1486 1484 1486 1488 1488 1490 1492 1494 1496 1498 1499 1501 1502 1504 1505 1507 1508 1509 1509 1509 1510 1511 1513 1515 1516 1519 1521 1520 1516 1512 1511 1511 1512 1515 1517 1519 1518 1517 1520 1521 1520 1520 1521 1523 1525 1528 1529 1531 1534 1536 1537 1540 1541 1544
1513 1512 1511 1510 1508 1507 1506 1505 1504 1503 1502 1501 1500 1499 1498 1497 1496 1496 1495 1495 1494 1493 1493 1492 1492 1491 1490 1490 1489 1488 1488 1487 1486 1485 1484 1483 1484 1485 1486 1488 1490 1492 1494 1496 1497 1499 1501 1503 1504 1505 1507 1507 1507 1507 1507 1508 1511 1512 1515 1520 1520 1515 1510 1505 1505 1506 1508 1513 1516 1517 1518 1518 1519 1520 1521 1521 1522 1524 1526 1529 1530 1532 1535 1538 1540 1541 1543 1546
1513 1512 1510 1509 1508 1507 1506 1504 1503 1503 1501 1500 1499 1498 1497 1496 1495 1494 1494 1494 1493 1493 1492 1491 1491 1490 1490 1489 1488 1487 1486 1486 1484 1482 1482 1482 1482 1483 1485 1487 1489 1491 1493 1495 1497 1498 1500 1501 1503 1504 1505 1506 1505 1504 1504 1506 1509 1510 1513 1519 1517 1509 1507 1505 1504 1506 1508 1511 1513 1517 1517 1518 1519 1520 1521 1522 1522 1524 1526 1529 1530 1531 1535 1538 1541 1542 1544 1547
1512 1511 1510 1508 1507 1506 1505 1504 1503 1502 1501 1500 1499 1497 1497 1496 1495 1494 1493 1492 1492 1492 1491 1491 1490 1490 1489 1488 1488 1487 1486 1484 1482 1480 1481 1482 1482 1483 1484 1485 1487 1490 1491 1494 1496 1498 1499 1501 1502 1503 1504 1503 1502 1502 1502 1504 1508 1509 1510 1514 1510 1505 1507 1507 1505 1506 1508 1510 1513 1515 1517 1518 1520 1520 1521 1521 1524 1526 1526 1528 1529 1529 1534 1537 1540 1542 1545 1547
1511 1510 1509 1508 1506 1505 1504 1503 1502 1501 1500 1499 1498 1497 1496 1495 1494 1493 1492 1491 1491 1491 1490 1490 1489 1489 1488 1488 1487 1486 1486 1485 1482 1480 1481 1482 1482 1482 1483 1485 1487 1488 1491 1493 1495 1497 1499 1500 1501 1502 1502 1501 1499 1499 1499 1499 1503 1505 1504 1503 1503 1503 1506 1507 1506 1507 1508 1510 1513 1515 1517 1519 1519 1520 1521 1521 1525 1527 1526 1528 1530 1530 1534 1537 1540 1543 1545 1548
1510 1508 1508 1506 1505 1504 1503 1502 1501 1500 1499 1498 1497 1496 1495 1494 1493 1492 1491 1490 1490 1490 1489 1488 1488 1488 1488 1487 1487 1486 1487 1485 1480 1480 1481 1481 1482 1482 1483 1484 1486 1488 1490 1492 1493 1495 1497 1498 1499 1499 1499 1498 1498 1496 1495 1495 1496 1501 1501 1498 1500 1501 1503 1506 1507 1508 1508 1509 1512 1514 1517 1518 1519 1521 1522 1522 1524 1526 1526 1529 1531 1532 1535 1538 1541 1544 1546 1548
1508 1507 1506 1505 1503 1502 1501 1500 1500 1498 1498 1497 1496 1495 1494 1493 1492 1491 1490 1489 1489 1488 1488 1487 1487 1487 1487 1487 1486 1486 1486 1481 1478 1479 1480 1481 1482 1482 1483 1484 1485 1487 1488 1490 1492 1493 1495 1497 1498 1497 1497 1497 1495 1493 1492 1493 1492 1498 1501 1497 1497 1500 1502 1505 1507 1508 1509 1509 1511 1513 1516 1518 1520 1522 1522 1523 1524 1526 1527 1529 1532 1535 1536 1539 1542 1545 1547 1549
1508 1507 1505 1504 1502 1500 1499 1499 1498 1497 1497 1496 1495 1494 1493 1492 1491 1490 1489 1488 1488 1487 1487 1486 1486 1486 1486 1487 1486 1486 1484 1479 1477 1479 1480 1480 1481 1481 1483 1483 1484 1486 1487 1489 1490 1492 1494 1495 1496 1495 1495 1495 1492 1490 1489 1493 1494 1495 1498 1495 1496 1500 1503 1505 1506 1508 1510 1511 1511 1513 1516 1519 1520 1522 1523 1525 1526 1527 1528 1530 1533 1536 1538 1540 1543 1545 1548 1550
1508 1506 1505 1503 1502 1500 1498 1497 1496 1496 1495 1494 1494 1493 1492 1491 1490 1489 1488 1487 1487 1486 1486 1485 1485 1485 1485 1486 1486 1485 1481 1477 1477 1478 1479 1480 1481 1481 1482 1482 1483 1485 1486 1488 1489 1491 1493 1494 1494 1493 1493 1492 1490 1489 1487 1494 1499 1493 1491 1493 1495 1500 1503 1504 1506 1508 1510 1512 1513 1514 1517 1519 1520 1522 1524 1526 1526 1528 1529 1531 1533 1536 1538 1540 1543 1546 1548 1550
1507 1506 1504 1502 1501 1499 1498 1496 1496 1494 1494 1493 1493 1492 1491 1490 1489 1488 1487 1486 1486 1485 1484 1484 1484 1485 1485 1485 1486 1485 1479 1476 1477 1478 1479 1479 1479 1480 1480 1481 1483 1484 1485 1487 1488 1489 1491 1492 1492 1492 1493 1491 1488 1488 1485 1489 1492 1487 1487 1491 1495 1500 1503 1504 1506 1508 1510 1513 1514 1515 1519 1520 1520 1523 1526 1525 1526 1528 1530 1531 1534 1537 1539 1541 1544 1546 1549 1550
1507 1505 1503 1501 1500 1498 1497 1496 1495 1494 1493 1492 1491 1491 1490 1489 1488 1487 1486 1485 1484 1484 1483 1483 1484 1484 1484 1484 1485 1483 1477 1476 1477 1477 1478 1478 1478 1479 1479 1480 1482 1483 1485 1487 1488 1488 1489 1490 1491 1491 1492 1490 1488 1486 1484 1483 1483 1482 1484 1490 1497 1502 1504 1505 1506 1509 1510 1512 1515 1514 1518 1521 1521 1524 1525 1524 1525 1527 1529 1531 1534 1537 1539 1541 1544 1546 1549 1550
1507 1505 1503 1501 1499 1497 1496 1494 1494 1493 1492 1491 1491 1490 1489 1488 1487 1486 1485 1484 1483 1483 1483 1483 1483 1483 1483 1483 1482 1478 1475 1477 1477 1476 1477 1477 1476 1477 1478 1480 1481 1483 1485 1486 1488 1488 1489 1489 1490 1491 1490 1489 1488 1488 1486 1482 1480 1481 1483 1492 1502 1505 1507 1507 1507 1510 1509 1512 1514 1513 1522 1527 1524 1524 1524 1524 1525 1526 1528 1530 1533 1536 1539 1541 1543 1546 1548 1550
1507 1506 1504 1501 1499 1497 1495 1494 1493 1492 1491 1491 1490 1490 1489 1488 1486 1485 1484 1483 1482 1482 1482 1482 1483 1482 1483 1481 1477 1475 1475 1477 1478 1477 1476 1476 1476 1477 1478 1480 1481 1483 1485 1486 1487 1488 1489 1489 1489 1489 1489 1488 1488 1489 1487 1481 1481 1484 1484 1490 1503 1511 1514 1509 1508 1510 1510 1513 1512 1514 1531 1535 1526 1524 1525 1526 1526 1526 1528 1530 1533 1535 1538 1541 1543 1546 1547 1550
1507 1506 1504 1502 1499 1497 1495 1493 1492 1491 1491 1491 1490 1490 1488 1487 1486 1485 1484 1483 1482 1482 1482 1483 1483 1482 1482 1478 1474 1475 1475 1475 1477 1478 1477 1477 1477 1477 1479 1480 1482 1483 1484 1485 1486 1488 1489 1488 1489 1489 1488 1488 1487 1488 1487 1483 1482 1484 1488 1492 1500 1515 1520 1509 1506 1510 1513 1517 1512 1514 1533 1536 1527 1526 1527 1528 1528 1526 1528 1530 1533 1535 1538 1541 1543 1545 1547 1549
1507 1505 1503 1502 1500 1497 1495 1494 1492 1491 1491 1491 1490 1489 1488 1487 1486 1485 1484 1483 1483 1483 1483 1483 1482 1482 1481 1476 1473 1474 1474 1475 1476 1477 1477 1477 1477 1478 1479 1480 1482 1483 1484 1485 1484 1486 1488 1488 1489 1488 1488 1489 1488 1490 1491 1489 1485 1483 1495 1502 1500 1512 1521 1511 1507 1508 1511 1516 1512 1517 1532 1533 1528 1527 1526 1528 1529 1528 1529 1531 1534 1535 1538 1540 1543 1545 1547 1549
1507 1505 1503 1501 1499 1497 1495 1494 1492 1491 1491 1490 1490 1489 1488 1487 1486 1485 1484 1483 1484 1483 1483 1484 1483 1483 1482 1476 1473 1474 1474 1474 1475 1476 1477 1477 1477 1478 1479 1481 1482 1484 1484 1484 1484 1485 1487 1487 1487 1487 1488 1489 1490 1493 1495 1497 1494 1487 1494 1504 1503 1511 1519 1516 1512 1506 1506 1512 1514 1519 1528 1532 1528 1525 1526 1528 1530 1531 1532 1533 1535 1536 1537 1540 1543 1545 1546 1549
1506 1504 1502 1500 1499 1497 1495 1494 1493 1492 1491 1491 1490 1489 1488 1487 1486 1485 1484 1484 1484 1483 1484 1484 1484 1484 1479 1473 1472 1472 1473 1473 1474 1475 1476 1476 1477 1478 1479 1481 1482 1484 1484 1484 1485 1484 1485 1486 1486 1488 1489 1489 1489 1492 1501 1507 1503 1494 1493 1498 1499 1505 1513 1516 1515 1508 1505 1510 1516 1520 1524 1529 1527 1524 1526 1528 1529 1531 1531 1534 1535 1535 1537 1539 1542 1544 1546 1548
1506 1504 1502 1500 1499 1497 1496 1494 1493 1492 1492 1491 1490 1488 1487 1486 1485 1485 1484 1484 1484 1484 1485 1483 1484 1486 1478 1469 1469 1470 1470 1472 1473 1474 1475 1475 1476 1477 1479 1480 1481 1483 1483 1483 1484 1484 1485 1484 1486 1490 1491 1492 1491 1493 1504 1506 1498 1494 1495 1496 1495 1499 1506 1510 1510 1507 1506 1511 1518 1524 1526 1527 1526 1525 1527 1529 1531 1531 1530 1532 1534 1534 1536 1538 1540 1542 1545 1547
1506 1504 1502 1501 1499 1497 1496 1495 1493 1493 1492 1491 1490 1488 1486 1485 1484 1484 1484 1484 1484 1484 1484 1482 1481 1481 1474 1468 1467 1468 1469 1471 1472 1473 1475 1475 1476 1477 1478 1480 1481 1482 1483 1484 1484 1483 1485 1486 1489 1494 1494 1494 1491 1491 1495 1491 1486 1486 1487 1489 1490 1495 1501 1500 1501 1501 1503 1513 1522 1526 1528 1527 1527 1527 1527 1530 1532 1533 1531 1530 1532 1533 1534 1536 1539 1541 1544 1547
1505 1504 1502 1501 1499 1497 1496 1495 1494 1493 1492 1491 1489 1488 1486 1485 1484 1484 1484 1483 1482 1480 1480 1479 1477 1473 1470 1468 1467 1468 1469 1471 1472 1473 1474 1474 1475 1476 1478 1479 1480 1480 1482 1484 1485 1483 1484 1490 1494 1494 1493 1490 1487 1486 1484 1481 1479 1480 1483 1486 1484 1489 1499 1497 1498 1500 1499 1512 1524 1523 1526 1528 1527 1526 1526 1529 1533 1532 1530 1530 1531 1532 1534 1536 1538 1541 1544 1546
1505 1504 1502 1501 1499 1498 1496 1495 1494 1493 1492 1491 1490 1489 1487 1486 1486 1486 1484 1482 1479 1477 1476 1476 1475 1472 1471 1469 1467 1468 1469 1470 1472 1472 1473 1474 1474 1476 1477 1478 1479 1482 1482 1481 1482 1482 1485 1492 1492 1488 1486 1483 1481 1481 1480 1479 1478 1480 1484 1487 1484 1486 1496 1495 1495 1498 1496 1509 1523 1521 1525 1531 1526 1524 1526 1527 1531 1531 1528 1529 1530 1532 1533 1536 1537 1540 1544 1546
1506 1504 1503 1501 1500 1498 1497 1496 1494 1494 1493 1492 1491 1490 1489 1489 1489 1488 1485 1481 1477 1475 1475 1474 1473 1472 1471 1470 1467 1467 1469 1470 1471 1472 1472 1473 1473 1475 1476 1477 1480 1482 1481 1480 1482 1485 1489 1491 1486 1481 1479 1478 1478 1477 1478 1478 1478 1483 1484 1485 1489 1490 1495 1498 1495 1495 1494 1507 1522 1520 1524 1533 1527 1523 1526 1526 1527 1528 1528 1528 1529 1532 1533 1535 1537 1540 1543 1545
1506 1504 1503 1502 1500 1499 1497 1496 1495 1494 1493 1492 1491 1490 1489 1489 1489 1487 1486 1483 1477 1473 1472 1471 1471 1471 1470 1470 1467 1466 1467 1468 1469 1470 1471 1473 1472 1473 1475 1476 1479 1480 1480 1481 1483 1488 1492 1488 1480 1475 1474 1476 1478 1476 1477 1479 1479 1483 1483 1485 1492 1490 1494 1505 1502 1496 1494 1502 1515 1516 1522 1531 1528 1527 1527 1527 1529 1528 1530 1531 1531 1533 1533 1534 1537 1539 1542 1544
1506 1504 1503 1501 1500 1499 1497 1496 1495 1494 1493 1492 1491 1490 1488 1489 1488 1487 1485 1482 1478 1472 1468 1468 1469 1470 1469 1469 1468 1467 1467 1467 1467 1468 1470 1472 1471 1473 1474 1474 1477 1479 1479 1479 1480 1484 1485 1479 1473 1472 1473 1475 1478 1477 1476 1480 1482 1481 1479 1481 1488 1486 1488 1496 1498 1497 1497 1503 1508 1513 1528 1534 1530 1534 1534 1529 1531 1532 1532 1534 1533 1533 1534 1535 1538 1539 1541 1543
1506 1505 1503 1501 1500 1498 1497 1496 1494 1494 1492 1491 1490 1489 1488 1489 1487 1486 1484 1483 1480 1470 1465 1466 1467 1468 1468 1468 1469 1468 1467 1468 1467 1467 1469 1470 1471 1472 1472 1472 1475 1478 1478 1476 1478 1481 1478 1470 1468 1472 1473 1472 1476 1478 1474 1477 1482 1481 1476 1473 1476 1481 1485 1489 1492 1497 1508 1518 1510 1508 1534 1543 1529 1531 1537 1533 1533 1534 1535 1536 1534 1533 1534 1535 1537 1538 1540 1542
1506 1504 1503 1502 1500 1498 1497 1495 1494 1494 1491 1490 1491 1489 1490 1489 1487 1486 1484 1486 1483 1470 1465 1467 1467 1467 1467 1467 1468 1468 1470 1468 1465 1466 1467 1469 1470 1470 1471 1470 1471 1474 1473 1471 1474 1476 1471 1465 1464 1470 1472 1472 1475 1476 1471 1471 1481 1484 1473 1465 1467 1474 1484 1488 1488 1496 1510 1517 1504 1497 1522 1543 1533 1528 1531 1532 1535 1536 1537 1536 1533 1533 1533 1534 1535 1536 1538 1540
1506 1504 1503 1502 1500 1499 1498 1495 1495 1493 1491 1492 1491 1490 1490 1487 1486 1485 1485 1493 1488 1469 1466 1468 1466 1467 1467 1467 1467 1469 1473 1467 1462 1464 1465 1468 1469 1468 1471 1470 1469 1471 1465 1467 1476 1474 1466 1465 1465 1467 1470 1473 1475 1476 1469 1465 1478 1482 1465 1460 1466 1471 1480 1485 1489 1498 1498 1498 1501 1497 1505 1532 1540 1529 1523 1526 1533 1537 1535 1533 1532 1531 1532 1532 1533 1535 1536 1539
1505 1504 1503 1502 1500 1499 1498 1496 1495 1493 1492 1492 1491 1491 1489 1487 1487 1484 1491 1505 1490 1468 1467 1467 1466 1467 1466 1467 1466 1465 1467 1462 1461 1464 1464 1467 1468 1467 1470 1468 1469 1470 1462 1468 1480 1470 1461 1465 1465 1464 1470 1474 1472 1470 1464 1463 1474 1473 1458 1458 1464 1465 1472 1481 1492 1499 1489 1495 1516 1508 1500 1527 1542 1527 1519 1524 1530 1534 1532 1530 1530 1530 1531 1531 1532 1534 1535 1538
1505 1504 1503 1502 1501 1499 1498 1497 1495 1494 1494 1491 1491 1491 1487 1487 1487 1483 1498 1508 1484 1465 1468 1466 1466 1467 1465 1466 1466 1463 1463 1461 1462 1463 1463 1466 1467 1466 1469 1467 1467 1467 1461 1464 1471 1464 1458 1459 1458 1459 1467 1470 1466 1462 1458 1462 1469 1462 1455 1459 1460 1462 1467 1474 1486 1489 1483 1500 1520 1508 1498 1524 1541 1528 1521 1525 1527 1527 1525 1524 1526 1528 1529 1530 1530 1533 1535 1537
1504 1503 1502 1501 1500 1499 1497 1496 1495 1494 1493 1491 1491 1490 1488 1487 1487 1496 1510 1502 1477 1467 1467 1464 1466 1466 1464 1466 1465 1463 1462 1461 1462 1463 1464 1466 1466 1466 1468 1467 1465 1466 1464 1462 1462 1458 1453 1453 1454 1455 1459 1460 1458 1457 1456 1458 1460 1457 1459 1464 1465 1466 1467 1471 1476 1478 1491 1505 1506 1499 1495 1512 1537 1534 1521 1520 1518 1517 1519 1521 1522 1524 1527 1528 1529 1532 1534 1536
1503 1502 1501 1500 1500 1499 1497 1496 1495 1494 1493 1493 1491 1489 1490 1487 1490 1508 1511 1487 1474 1472 1465 1463 1465 1463 1465 1467 1466 1464 1461 1460 1461 1464 1467 1466 1466 1468 1469 1469 1468 1469 1472 1469 1464 1458 1453 1455 1455 1451 1452 1452 1454 1457 1455 1454 1455 1459 1464 1468 1475 1478 1474 1480 1481 1483 1505 1511 1493 1489 1490 1501 1527 1529 1516 1513 1509 1509 1515 1517 1519 1521 1523 1526 1528 1531 1533 1535
1502 1501 1500 1500 1499 1497 1497 1495 1494 1494 1493 1493 1492 1488 1490 1493 1499 1508 1497 1479 1480 1477 1465 1464 1464 1461 1465 1465 1464 1463 1460 1462 1462 1463 1466 1468 1469 1470 1471 1473 1472 1477 1481 1474 1468 1462 1457 1456 1453 1450 1450 1451 1457 1463 1462 1459 1458 1463 1468 1472 1486 1494 1492 1500 1501 1497 1508 1504 1485 1483 1491 1504 1517 1512 1507 1509 1506 1507 1510 1512 1515 1518 1521 1524 1526 1529 1531 1533
1500 1500 1498 1498 1498 1496 1496 1495 1494 1494 1493 1493 1493 1488 1491 1503 1508 1501 1487 1480 1481 1473 1464 1464 1462 1460 1464 1466 1464 1461 1461 1464 1463 1463 1465 1467 1471 1470 1469 1468 1466 1475 1480 1472 1468 1467 1465 1460 1453 1455 1457 1453 1458 1467 1471 1469 1464 1468 1471 1476 1490 1501 1509 1517 1512 1506 1507 1498 1482 1479 1493 1514 1517 1507 1506 1506 1504 1506 1507 1509 1512 1516 1519 1523 1525 1527 1530 1531
1498 1498 1497 1497 1496 1495 1494 1495 1494 1494 1493 1493 1493 1492 1497 1507 1505 1494 1487 1481 1474 1468 1465 1464 1462 1461 1464 1467 1465 1461 1464 1466 1462 1463 1466 1468 1473 1473 1471 1469 1464 1467 1471 1471 1470 1468 1474 1474 1461 1459 1462 1458 1459 1463 1466 1467 1466 1467 1464 1469 1483 1489 1501 1513 1508 1508 1510 1498 1485 1482 1500 1522 1521 1512 1506 1502 1504 1507 1508 1510 1512 1515 1519 1522 1525 1527 1529 1530
1497 1496 1496 1495 1495 1494 1493 1495 1494 1493 1494 1493 1493 1499 1505 1507 1500 1492 1488 1480 1472 1471 1468 1464 1464 1465 1466 1466 1463 1460 1463 1466 1462 1464 1468 1469 1473 1474 1473 1471 1465 1464 1470 1477 1475 1467 1475 1475 1457 1452 1455 1456 1461 1457 1456 1465 1471 1467 1459 1468 1479 1475 1480 1493 1494 1494 1495 1495 1497 1501 1512 1516 1510 1507 1502 1501 1506 1507 1510 1513 1513 1516 1519 1521 1525 1527 1528 1531
1495 1495 1494 1493 1493 1492 1492 1494 1494 1493 1494 1492 1496 1503 1503 1499 1493 1487 1483 1478 1475 1475 1474 1473 1472 1472 1473 1470 1467 1464 1463 1465 1464 1465 1468 1468 1470 1471 1469 1467 1463 1462 1469 1477 1477 1475 1481 1476 1455 1451 1453 1451 1457 1456 1453 1465 1474 1469 1467 1474 1471 1461 1468 1485 1491 1485 1486 1503 1516 1517 1520 1516 1511 1515 1510 1508 1513 1510 1512 1515 1514 1518 1520 1521 1525 1526 1528 1530
1494 1494 1493 1492 1490 1489 1490 1493 1492 1493 1493 1492 1499 1503 1496 1492 1488 1482 1481 1480 1478 1477 1481 1487 1484 1479 1481 1478 1475 1471 1467 1466 1467 1469 1470 1468 1471 1473 1468 1466 1464 1462 1465 1471 1474 1474 1481 1480 1459 1451 1456 1450 1449 1454 1452 1455 1463 1469 1474 1471 1462 1460 1466 1478 1494 1498 1496 1513 1523 1519 1521 1521 1522 1527 1519 1515 1518 1515 1514 1516 1516 1520 1522 1523 1525 1526 1528 1529
1493 1493 1492 1490 1487 1486 1489 1492 1492 1493 1493 1493 1499 1498 1493 1490 1484 1481 1482 1481 1480 1480 1485 1493 1488 1482 1486 1487 1482 1476 1471 1473 1473 1473 1473 1472 1475 1475 1471 1470 1468 1465 1465 1469 1474 1471 1475 1484 1466 1447 1453 1453 1447 1456 1463 1456 1455 1461 1464 1460 1462 1477 1482 1479 1494 1506 1505 1517 1531 1531 1530 1526 1525 1524 1515 1513 1517 1516 1516 1517 1518 1521 1523 1525 1526 1526 1528 1529
1493 1492 1491 1488 1486 1487 1490 1492 1492 1492 1493 1495 1499 1496 1491 1487 1482 1481 1483 1481 1481 1483 1486 1491 1490 1486 1488 1488 1485 1481 1477 1480 1480 1478 1481 1484 1482 1477 1474 1475 1473 1470 1469 1469 1474 1473 1472 1486 1480 1454 1450 1456 1454 1462 1473 1470 1460 1456 1458 1459 1463 1474 1482 1481 1484 1491 1498 1515 1534 1544 1545 1538 1531 1523 1516 1515 1514 1514 1518 1519 1519 1523 1525 1526 1527 1527 1529 1530
1493 1492 1490 1487 1487 1488 1489 1490 1490 1491 1493 1495 1495 1492 1488 1485 1482 1481 1483 1481 1481 1484 1485 1488 1489 1490 1491 1489 1488 1485 1481 1483 1485 1484 1488 1488 1484 1480 1478 1478 1477 1475 1474 1471 1474 1475 1472 1482 1487 1467 1454 1463 1467 1467 1471 1471 1468 1466 1468 1472 1471 1470 1475 1479 1480 1477 1484 1507 1530 1544 1550 1542 1527 1520 1520 1520 1515 1515 1519 1520 1522 1525 1526 1528 1529 1529 1531 1531
1493 1492 1489 1486 1487 1488 1488 1490 1489 1489 1491 1492 1490 1487 1486 1485 1482 1480 1482 1481 1481 1483 1484 1485 1487 1489 1492 1492 1490 1487 1484 1485 1487 1488 1490 1488 1487 1488 1484 1481 1480 1478 1477 1477 1478 1480 1478 1482 1487 1476 1468 1473 1471 1463 1462 1463 1465 1467 1470 1473 1475 1475 1479 1488 1493 1480 1474 1492 1512 1528 1545 1541 1523 1516 1520 1521 1518 1517 1519 1521 1524 1527 1528 1530 1530 1531 1533 1533
1493 1491 1487 1486 1487 1487 1487 1488 1485 1484 1487 1489 1487 1486 1485 1485 1483 1481 1481 1481 1481 1483 1483 1484 1486 1487 1490 1492 1488 1485 1485 1488 1489 1490 1491 1489 1488 1489 1486 1483 1483 1479 1480 1483 1482 1481 1480 1481 1485 1481 1475 1474 1467 1459 1459 1461 1460 1462 1466 1467 1470 1474 1477 1489 1499 1489 1480 1489 1498 1511 1535 1539 1522 1516 1520 1521 1519 1519 1521 1523 1526 1529 1530 1531 1532 1533 1535 1536
1492 1490 1487 1486 1486 1486 1488 1487 1483 1482 1485 1486 1484 1485 1486 1485 1485 1483 1482 1482 1482 1483 1483 1485 1487 1488 1490 1492 1488 1486 1488 1490 1490 1490 1490 1489 1487 1487 1487 1485 1485 1482 1482 1486 1484 1481 1480 1482 1487 1485 1476 1469 1462 1458 1459 1460 1462 1467 1468 1465 1469 1474 1473 1477 1484 1484 1488 1499 1502 1516 1538 1539 1524 1519 1521 1522 1521 1522 1525 1526 1528 1532 1533 1533 1534 1535 1536 1538
1490 1487 1485 1485 1485 1485 1487 1487 1484 1483 1485 1484 1484 1486 1487 1487 1488 1487 1486 1485 1484 1484 1485 1486 1487 1488 1490 1490 1487 1487 1490 1494 1493 1490 1489 1489 1487 1488 1487 1486 1487 1485 1486 1489 1488 1486 1488 1488 1490 1495 1493 1485 1478 1475 1474 1470 1469 1474 1472 1467 1468 1470 1470 1473 1475 1480 1494 1504 1505 1519 1539 1536 1524 1520 1520 1521 1523 1525 1528 1529 1531 1534 1535 1536 1537 1536 1536 1537
1491 1487 1484 1483 1483 1483 1484 1484 1482 1484 1485 1485 1485 1486 1487 1488 1490 1490 1489 1488 1486 1485 1486 1487 1486 1486 1486 1487 1488 1488 1490 1495 1496 1492 1489 1488 1488 1488 1487 1487 1488 1486 1486 1488 1487 1487 1491 1490 1492 1503 1511 1510 1506 1501 1494 1485 1479 1477 1474 1471 1469 1468 1471 1477 1480 1489 1504 1507 1504 1515 1532 1533 1524 1520 1521 1522 1523 1526 1529 1531 1533 1536 1538 1540 1540 1539 1538 1537
1494 1491 1486 1483 1482 1482 1484 1483 1482 1485 1485 1486 1488 1487 1487 1489 1490 1491 1490 1490 1489 1488 1487 1487 1486 1486 1488 1490 1494 1495 1493 1494 1497 1494 1491 1490 1489 1489 1488 1488 1488 1487 1487 1487 1486 1486 1490 1489 1489 1497 1503 1505 1503 1496 1488 1486 1485 1482 1478 1475 1472 1469 1472 1477 1483 1494 1502 1505 1508 1511 1517 1528 1529 1522 1521 1522 1522 1525 1528 1530 1534 1537 1539 1541 1541 1542 1542 1540
1494 1491 1487 1487 1487 1485 1486 1485 1484 1486 1485 1487 1490 1489 1488 1489 1490 1491 1492 1491 1491 1490 1489 1488 1487 1489 1492 1495 1498 1501 1499 1497 1498 1496 1494 1492 1490 1489 1489 1488 1488 1489 1487 1487 1487 1488 1493 1494 1489 1489 1491 1490 1488 1485 1482 1483 1485 1484 1483 1480 1475 1471 1473 1478 1485 1492 1493 1502 1517 1514 1508 1521 1528 1521 1519 1521 1521 1524 1526 1529 1534 1536 1538 1541 1542 1542 1543 1542
1495 1492 1489 1490 1491 1489 1490 1490 1488 1487 1487 1488 1490 1489 1489 1491 1492 1493 1493 1492 1492 1491 1491 1493 1492 1492 1495 1496 1499 1503 1503 1501 1502 1501 1498 1496 1493 1491 1490 1488 1489 1490 1489 1489 1489 1490 1496 1499 1492 1488 1489 1486 1483 1482 1482 1483 1484 1483 1483 1480 1476 1474 1477 1480 1482 1484 1484 1495 1511 1511 1507 1514 1519 1517 1520 1521 1520 1523 1526 1529 1533 1535 1538 1540 1541 1542 1543 1544
1497 1495 1491 1490 1491 1490 1491 1491 1489 1490 1491 1491 1491 1491 1491 1493 1495 1495 1495 1494 1495 1494 1494 1497 1498 1496 1496 1497 1499 1504 1505 1506 1508 1505 1501 1499 1497 1495 1496 1495 1493 1492 1491 1492 1492 1492 1497 1499 1494 1492 1493 1489 1485 1484 1482 1483 1485 1484 1483 1481 1479 1479 1481 1481 1480 1479 1482 1491 1500 1503 1507 1511 1512 1515 1520 1521 1521 1524 1526 1529 1533 1535 1538 1540 1542 1544 1545 1547
1500 1500 1497 1494 1492 1491 1491 1490 1489 1490 1492 1493 1494 1493 1492 1494 1497 1497 1497 1498 1499 1498 1497 1499 1501 1499 1499 1499 1500 1503 1504 1505 1507 1505 1501 1501 1500 1499 1500 1501 1498 1495 1493 1494 1494 1493 1498 1500 1494 1493 1498 1495 1488 1484 1484 1486 1487 1487 1487 1485 1484 1484 1484 1483 1482 1482 1488 1496 1499 1504 1512 1516 1514 1514 1518 1521 1523 1524 1527 1530 1532 1535 1538 1541 1543 1546 1547 1549
1503 1503 1501 1499 1496 1493 1492 1491 1489 1490 1493 1494 1495 1494 1494 1496 1497 1498 1499 1500 1501 1501 1499 1500 1501 1500 1501 1502 1503 1504 1504 1502 1503 1503 1501 1502 1502 1501 1501 1500 1499 1499 1498 1497 1497 1495 1497 1500 1496 1495 1504 1503 1492 1488 1489 1487 1487 1490 1491 1491 1490 1488 1487 1486 1485 1486 1492 1499 1506 1513 1520 1521 1516 1514 1517 1520 1522 1525 1528 1530 1532 1535 1538 1542 1545 1547 1548 1550
1502 1501 1501 1501 1498 1494 1493 1491 1489 1493 1497 1496 1495 1495 1495 1497 1497 1498 1502 1502 1501 1502 1502 1501 1501 1502 1504 1506 1506 1506 1505 1504 1503 1503 1502 1502 1502 1500 1501 1500 1499 1501 1501 1501 1501 1499 1498 1502 1501 1502 1509 1506 1495 1493 1491 1489 1497 1503 1498 1494 1493 1490 1487 1486 1486 1487 1489 1496 1505 1513 1516 1514 1512 1512 1516 1519 1522 1526 1529 1531 1533 1536 1539 1543 1546 1548 1549 1551